Location: Nairn
(57.5833°N, 3.8667°W)
Time: 18:14:49
(UTC+00:00)

Tiros 1 - Visible Passes

Search period start: 04 December 2020 00:00
Search period end: 14 December 2020 00:00
Orbit: 630 x 664 km, 48.4° (Epoch: 03 December)

Date Brightness Start Highest point End Pass type
(mag) Time Alt. Az. Time Alt. Az. Time Alt. Az.
04 Dec 9.2 17:20:36 10° WSW 17:24:29 25° SSW 17:28:20 10° SE visible
04 Dec 9.8 19:03:24 10° WSW 19:05:32 13° SSW 19:07:41 10° S visible
05 Dec 9.5 17:46:35 10° WSW 17:50:01 20° SSW 17:53:26 10° SSE visible
06 Dec 9.3 16:30:26 10° WSW 16:34:22 25° SSW 16:38:16 10° SE visible
06 Dec 9.9 18:13:05 10° WSW 18:15:27 14° SSW 18:17:49 10° S visible
07 Dec 9.7 16:56:24 10° WSW 16:59:54 20° SSW 17:03:24 10° SSE visible
08 Dec 10.0 17:22:48 10° WSW 17:25:21 14° SSW 17:27:53 10° S visible
10 Dec 10.1 16:32:33 10° WSW 16:35:16 15° SSW 16:37:57 10° S visible
